STARLINK-2199

decayed
NORAD ID: 47413 Int'l Des: 2021-006 Owner: SPXS Country: US Constellation: starlink
LEOCIRCULARRETROGRADE

关于 STARLINK-2199

正在加载描述...

高度历史

Altitude vs Time

uPlot chart will show altitude changes over time

两行轨道根数

1 47413U 21006A 21351.55965276 .28292942 29244-5 10549-2 0 9990
2 47413 97.4607 54.4333 0023876 17.2932 343.7576 16.41294746 50055
Epoch: Dec 17, 2021 • Age: 32908 hours

当前状态

Position data unavailable
发射日期 Jan 24, 2021
运行时间 4.6 years
衰减日期 Dec 17, 2021
类型 internet

技术详情

分类 Payload
质量 260.00 kg
干质量 248.00 kg
总质量 260.00 kg
长度 0.20 m
直径 2.80 m
跨度 9.00 m
形状 Box + pan
制造商 SPXS
平台类型 Starlink
阶段状态 Unknown Transfer Status
所有者/国家 SPXS/US

大型星座

Loading constellations...